Time,TemperatureF,DewpointF,PressureIn,WindDirection,WindDirectionDegrees,WindSpeedMPH,WindSpeedGustMPH,Humidity,HourlyPrecipIn,Conditions,Clouds,dailyrainin,SoftwareType,DateUTC
2013-08-06 00:02:00,66.0,62.0,29.88,SSE,150,0.0,0.0,88,0.00,,,0.00,,2013-08-06 05:02:00,
2013-08-06 00:11:00,66.0,62.0,29.88,WSW,248,0.0,3.0,88,0.00,,,0.00,,2013-08-06 05:11:00,
2013-08-06 00:22:00,66.0,62.0,29.88,WSW,248,0.0,3.0,88,0.00,,,0.00,,2013-08-06 05:22:00,
2013-08-06 00:32:00,65.0,62.0,29.87,SSE,150,0.0,2.0,90,0.00,,,0.00,,2013-08-06 05:32:00,
2013-08-06 00:43:00,65.0,62.0,29.86,SE,139,0.0,0.0,91,0.00,,,0.00,,2013-08-06 05:43:00,
2013-08-06 00:53:00,64.0,62.0,29.86,SE,139,0.0,0.0,92,0.00,,,0.00,,2013-08-06 05:53:00,
2013-08-06 01:02:00,64.0,62.0,29.86,SE,125,0.0,0.0,92,0.00,,,0.00,,2013-08-06 06:02:00,
2013-08-06 01:11:00,64.0,62.0,29.86,WSW,240,0.0,3.0,93,0.00,,,0.00,,2013-08-06 06:11:00,
2013-08-06 01:22:00,64.0,62.0,29.86,SSE,158,0.0,4.0,93,0.00,,,0.00,,2013-08-06 06:22:00,
2013-08-06 01:32:00,65.0,63.0,29.86,WSW,245,0.0,0.0,93,0.00,,,0.00,,2013-08-06 06:32:00,
2013-08-06 01:43:00,65.0,63.0,29.86,WSW,256,0.0,0.0,93,0.00,,,0.00,,2013-08-06 06:43:00,
2013-08-06 01:52:00,65.0,63.0,29.86,WSW,242,0.0,0.0,93,0.00,,,0.00,,2013-08-06 06:52:00,
2013-08-06 02:01:00,65.0,63.0,29.86,West,259,0.0,0.0,92,0.00,,,0.00,,2013-08-06 07:01:00,
2013-08-06 02:12:00,65.0,63.0,29.87,WSW,245,0.0,0.0,92,0.00,,,0.00,,2013-08-06 07:12:00,
2013-08-06 02:22:00,65.0,63.0,29.86,SSW,193,0.0,0.0,92,0.00,,,0.00,,2013-08-06 07:22:00,
2013-08-06 02:32:00,65.0,63.0,29.85,SW,214,0.0,2.0,92,0.00,,,0.00,,2013-08-06 07:32:00,
2013-08-06 02:43:00,65.0,63.0,29.85,WSW,239,0.0,0.0,93,0.00,,,0.00,,2013-08-06 07:43:00,
2013-08-06 02:53:00,64.0,62.0,29.85,WSW,239,0.0,0.0,93,0.00,,,0.00,,2013-08-06 07:53:00,
2013-08-06 03:01:00,64.0,62.0,29.85,WSW,238,0.0,0.0,94,0.00,,,0.00,,2013-08-06 08:01:00,
2013-08-06 03:11:00,64.0,63.0,29.85,SW,226,0.0,0.0,95,0.00,,,0.00,,2013-08-06 08:11:00,
2013-08-06 03:22:00,63.0,62.0,29.85,SW,228,0.0,0.0,95,0.00,,,0.00,,2013-08-06 08:22:00,
2013-08-06 03:33:00,63.0,62.0,29.84,SW,228,0.0,0.0,96,0.00,,,0.00,,2013-08-06 08:33:00,
2013-08-06 03:43:00,63.0,62.0,29.84,SW,228,0.0,0.0,96,0.00,,,0.00,,2013-08-06 08:43:00,
2013-08-06 03:52:00,63.0,62.0,29.84,SW,228,0.0,0.0,96,0.00,,,0.00,,2013-08-06 08:52:00,
2013-08-06 04:01:00,62.0,61.0,29.84,SW,228,0.0,0.0,96,0.00,,,0.00,,2013-08-06 09:01:00,
2013-08-06 04:11:00,62.0,61.0,29.83,SW,228,0.0,0.0,97,0.00,,,0.00,,2013-08-06 09:11:00,
2013-08-06 04:22:00,62.0,61.0,29.83,SW,228,0.0,0.0,97,0.00,,,0.00,,2013-08-06 09:22:00,
2013-08-06 04:32:00,62.0,61.0,29.83,SW,228,0.0,0.0,97,0.00,,,0.00,,2013-08-06 09:32:00,
2013-08-06 04:43:00,62.0,61.0,29.83,SW,228,0.0,0.0,97,0.00,,,0.00,,2013-08-06 09:43:00,
2013-08-06 04:52:00,62.0,61.0,29.83,SSE,163,0.0,0.0,97,0.00,,,0.00,,2013-08-06 09:52:00,
2013-08-06 05:01:00,63.0,62.0,29.83,SE,135,0.0,0.0,98,0.00,,,0.00,,2013-08-06 10:01:00,
2013-08-06 05:11:00,63.0,62.0,29.84,SSW,195,0.0,0.0,98,0.00,,,0.00,,2013-08-06 10:11:00,
2013-08-06 05:22:00,63.0,62.0,29.84,SW,219,0.0,0.0,98,0.00,,,0.00,,2013-08-06 10:22:00,
2013-08-06 05:32:00,63.0,62.0,29.84,SW,236,0.0,0.0,97,0.00,,,0.00,,2013-08-06 10:32:00,
2013-08-06 05:43:00,64.0,63.0,29.84,WSW,245,0.0,0.0,97,0.00,,,0.00,,2013-08-06 10:43:00,
2013-08-06 05:52:00,64.0,63.0,29.84,WSW,242,0.0,0.0,97,0.00,,,0.00,,2013-08-06 10:52:00,
2013-08-06 06:02:00,63.0,62.0,29.84,WSW,243,0.0,0.0,97,0.00,,,0.00,,2013-08-06 11:02:00,
2013-08-06 06:11:00,63.0,62.0,29.83,WSW,245,0.0,0.0,97,0.00,,,0.00,,2013-08-06 11:11:00,
2013-08-06 06:22:00,63.0,62.0,29.84,WSW,245,0.0,0.0,97,0.00,,,0.00,,2013-08-06 11:22:00,
2013-08-06 06:32:00,63.0,62.0,29.84,WSW,245,0.0,0.0,97,0.00,,,0.00,,2013-08-06 11:32:00,
2013-08-06 06:43:00,63.0,62.0,29.84,WSW,245,0.0,0.0,97,0.00,,,0.00,,2013-08-06 11:43:00,
2013-08-06 06:53:00,63.0,62.0,29.84,WSW,245,0.0,0.0,97,0.00,,,0.00,,2013-08-06 11:53:00,
2013-08-06 07:02:00,63.0,62.0,29.83,WSW,245,0.0,0.0,98,0.00,,,0.00,,2013-08-06 12:02:00,
2013-08-06 07:11:00,63.0,62.0,29.83,WSW,245,0.0,0.0,98,0.00,,,0.00,,2013-08-06 12:11:00,
2013-08-06 07:22:00,64.0,63.0,29.83,WSW,241,0.0,0.0,98,0.00,,,0.00,,2013-08-06 12:22:00,
2013-08-06 07:32:00,65.0,64.0,29.84,ESE,111,0.0,0.0,97,0.00,,,0.00,,2013-08-06 12:32:00,
2013-08-06 07:43:00,66.0,65.0,29.84,SW,224,0.0,0.0,97,0.00,,,0.00,,2013-08-06 12:43:00,
2013-08-06 07:52:00,67.0,66.0,29.84,SW,231,0.0,0.0,95,0.00,,,0.00,,2013-08-06 12:52:00,
2013-08-06 08:02:00,67.0,66.0,29.84,SW,227,0.0,0.0,95,0.00,,,0.00,,2013-08-06 13:02:00,
2013-08-06 08:11:00,68.0,66.0,29.85,WSW,250,0.0,0.0,93,0.00,,,0.00,,2013-08-06 13:11:00,
2013-08-06 08:22:00,69.0,67.0,29.85,WSW,249,0.0,0.0,93,0.00,,,0.00,,2013-08-06 13:22:00,
2013-08-06 08:32:00,70.0,68.0,29.85,West,259,0.0,0.0,92,0.00,,,0.00,,2013-08-06 13:32:00,
2013-08-06 08:42:00,70.0,67.0,29.86,West,259,0.0,0.0,90,0.00,,,0.00,,2013-08-06 13:42:00,
2013-08-06 08:53:00,70.0,66.0,29.86,WSW,250,1.0,4.0,88,0.00,,,0.00,,2013-08-06 13:53:00,
2013-08-06 09:01:00,71.0,67.0,29.85,SW,236,0.0,3.0,88,0.00,,,0.00,,2013-08-06 14:01:00,
2013-08-06 09:11:00,72.0,68.0,29.85,West,264,0.0,3.0,86,0.00,,,0.00,,2013-08-06 14:11:00,
2013-08-06 09:22:00,71.0,67.0,29.86,West,264,1.0,4.0,86,0.00,,,0.00,,2013-08-06 14:22:00,
2013-08-06 09:32:00,71.0,67.0,29.87,SW,219,0.0,2.0,87,0.00,,,0.00,,2013-08-06 14:32:00,
2013-08-06 09:42:00,72.0,67.0,29.86,WSW,256,0.0,4.0,85,0.00,,,0.00,,2013-08-06 14:42:00,
2013-08-06 09:53:00,72.0,68.0,29.87,West,259,0.0,0.0,86,0.00,,,0.00,,2013-08-06 14:53:00,
2013-08-06 10:02:00,71.0,67.0,29.87,WSW,243,0.0,3.0,86,0.00,,,0.00,,2013-08-06 15:02:00,
2013-08-06 10:11:00,71.0,67.0,29.87,WSW,239,0.0,3.0,86,0.00,,,0.00,,2013-08-06 15:11:00,
2013-08-06 10:22:00,72.0,67.0,29.87,SW,231,0.0,4.0,85,0.00,,,0.00,,2013-08-06 15:22:00,
2013-08-06 10:33:00,73.0,67.0,29.87,NW,307,0.0,6.0,82,0.00,,,0.00,,2013-08-06 15:33:00,
2013-08-06 10:44:00,74.0,68.0,29.87,WSW,248,0.0,4.0,81,0.00,,,0.00,,2013-08-06 15:44:00,
2013-08-06 10:52:00,74.0,68.0,29.88,WSW,256,1.0,5.0,81,0.00,,,0.00,,2013-08-06 15:52:00,
2013-08-06 11:02:00,74.0,68.0,29.88,West,260,0.0,4.0,81,0.00,,,0.00,,2013-08-06 16:02:00,
2013-08-06 11:11:00,75.0,68.0,29.87,NE,46,0.0,1.0,79,0.00,,,0.00,,2013-08-06 16:11:00,
2013-08-06 11:22:00,74.0,67.0,29.87,WSW,252,0.0,4.0,78,0.00,,,0.00,,2013-08-06 16:22:00,
2013-08-06 11:32:00,75.0,68.0,29.86,ENE,58,1.0,6.0,78,0.00,,,0.00,,2013-08-06 16:32:00,
2013-08-06 11:43:00,76.0,68.0,29.86,SSE,155,1.0,4.0,77,0.00,,,0.00,,2013-08-06 16:43:00,
2013-08-06 11:52:00,77.0,69.0,29.86,NW,308,1.0,5.0,76,0.00,,,0.00,,2013-08-06 16:52:00,
2013-08-06 12:02:00,76.0,67.0,29.86,SW,232,0.0,5.0,74,0.00,,,0.00,,2013-08-06 17:02:00,
2013-08-06 12:11:00,77.0,68.0,29.86,North,349,1.0,4.0,75,0.00,,,0.00,,2013-08-06 17:11:00,
2013-08-06 12:21:00,78.0,69.0,29.86,ESE,121,0.0,6.0,73,0.00,,,0.00,,2013-08-06 17:21:00,
2013-08-06 12:32:00,78.0,67.0,29.85,WSW,238,0.0,6.0,70,0.00,,,0.00,,2013-08-06 17:32:00,
2013-08-06 12:44:00,79.0,69.0,29.85,WNW,293,0.0,4.0,72,0.00,,,0.00,,2013-08-06 17:44:00,
2013-08-06 12:52:00,80.0,69.0,29.85,WSW,248,1.0,5.0,69,0.00,,,0.00,,2013-08-06 17:52:00,
2013-08-06 13:01:00,80.0,68.0,29.85,SSW,208,0.0,4.0,68,0.00,,,0.00,,2013-08-06 18:01:00,
2013-08-06 13:11:00,80.0,68.0,29.85,WNW,302,1.0,8.0,66,0.00,,,0.00,,2013-08-06 18:11:00,
2013-08-06 13:22:00,80.0,68.0,29.85,WSW,248,0.0,4.0,68,0.00,,,0.00,,2013-08-06 18:22:00,
2013-08-06 13:32:00,79.0,68.0,29.85,SW,235,1.0,5.0,69,0.00,,,0.00,,2013-08-06 18:32:00,
2013-08-06 13:43:00,80.0,68.0,29.84,WSW,248,1.0,5.0,66,0.00,,,0.00,,2013-08-06 18:43:00,
2013-08-06 13:52:00,81.0,68.0,29.84,SW,226,2.0,7.0,65,0.00,,,0.00,,2013-08-06 18:52:00,
2013-08-06 14:01:00,81.0,69.0,29.84,WSW,248,0.0,7.0,66,0.00,,,0.00,,2013-08-06 19:01:00,
2013-08-06 14:11:00,81.0,69.0,29.84,WSW,248,0.0,7.0,66,0.00,,,0.00,,2013-08-06 19:11:00,
2013-08-06 14:21:00,81.0,70.0,29.83,WSW,240,0.0,5.0,69,0.00,,,0.00,,2013-08-06 19:21:00,
2013-08-06 14:32:00,81.0,68.0,29.83,NW,316,2.0,7.0,64,0.00,,,0.00,,2013-08-06 19:32:00,
2013-08-06 14:42:00,81.0,68.0,29.83,West,276,1.0,5.0,64,0.00,,,0.00,,2013-08-06 19:42:00,
2013-08-06 14:52:00,82.0,69.0,29.83,WSW,256,0.0,3.0,65,0.00,,,0.00,,2013-08-06 19:52:00,
2013-08-06 15:01:00,82.0,69.0,29.82,SW,232,0.0,4.0,64,0.00,,,0.00,,2013-08-06 20:01:00,
2013-08-06 15:11:00,82.0,69.0,29.82,SSE,156,0.0,1.0,64,0.00,,,0.00,,2013-08-06 20:11:00,
2013-08-06 15:22:00,82.0,69.0,29.82,SW,218,1.0,3.0,66,0.00,,,0.00,,2013-08-06 20:22:00,
2013-08-06 15:32:00,82.0,69.0,29.82,WSW,243,0.0,6.0,65,0.00,,,0.00,,2013-08-06 20:32:00,
2013-08-06 15:44:00,81.0,69.0,29.81,SW,231,0.0,5.0,67,0.00,,,0.00,,2013-08-06 20:44:00,
2013-08-06 15:52:00,82.0,69.0,29.81,NNW,339,1.0,4.0,66,0.00,,,0.00,,2013-08-06 20:52:00,
2013-08-06 16:01:00,82.0,69.0,29.80,WSW,256,1.0,4.0,65,0.00,,,0.00,,2013-08-06 21:01:00,
2013-08-06 16:11:00,82.0,69.0,29.80,WNW,285,1.0,6.0,64,0.00,,,0.00,,2013-08-06 21:11:00,
2013-08-06 16:22:00,83.0,70.0,29.80,West,267,2.0,6.0,64,0.00,,,0.00,,2013-08-06 21:22:00,
2013-08-06 16:32:00,83.0,69.0,29.81,West,261,0.0,5.0,63,0.00,,,0.00,,2013-08-06 21:32:00,
2013-08-06 16:43:00,82.0,69.0,29.81,WSW,245,2.0,6.0,66,0.00,,,0.00,,2013-08-06 21:43:00,
2013-08-06 16:52:00,82.0,69.0,29.81,West,278,0.0,7.0,65,0.00,,,0.00,,2013-08-06 21:52:00,
2013-08-06 17:01:00,82.0,69.0,29.81,WSW,246,2.0,8.0,65,0.00,,,0.00,,2013-08-06 22:01:00,
2013-08-06 17:11:00,82.0,69.0,29.81,ESE,120,2.0,10.0,65,0.00,,,0.00,,2013-08-06 22:11:00,
2013-08-06 17:22:00,82.0,69.0,29.81,SW,221,1.0,5.0,66,0.00,,,0.00,,2013-08-06 22:22:00,
2013-08-06 17:32:00,82.0,69.0,29.81,SW,228,2.0,10.0,66,0.00,,,0.00,,2013-08-06 22:32:00,
2013-08-06 17:43:00,82.0,69.0,29.81,SE,131,1.0,5.0,66,0.00,,,0.00,,2013-08-06 22:43:00,
2013-08-06 17:52:00,81.0,70.0,29.82,SW,226,2.0,5.0,69,0.00,,,0.00,,2013-08-06 22:52:00,
2013-08-06 18:01:00,80.0,70.0,29.82,WSW,248,0.0,4.0,71,0.00,,,0.00,,2013-08-06 23:01:00,
2013-08-06 18:11:00,81.0,71.0,29.81,SSE,164,1.0,6.0,72,0.00,,,0.00,,2013-08-06 23:11:00,
2013-08-06 18:22:00,80.0,71.0,29.82,WSW,248,0.0,5.0,73,0.00,,,0.00,,2013-08-06 23:22:00,
2013-08-06 18:32:00,81.0,72.0,29.82,SW,233,0.0,2.0,73,0.00,,,0.00,,2013-08-06 23:32:00,
2013-08-06 18:43:00,80.0,70.0,29.82,SW,224,2.0,8.0,72,0.00,,,0.00,,2013-08-06 23:43:00,
2013-08-06 18:52:00,80.0,70.0,29.82,WSW,245,0.0,3.0,72,0.00,,,0.00,,2013-08-06 23:52:00,
2013-08-06 19:01:00,80.0,71.0,29.81,WSW,250,1.0,5.0,73,0.00,,,0.00,,2013-08-07 00:01:00,
2013-08-06 19:11:00,80.0,71.0,29.82,WSW,242,0.0,2.0,73,0.00,,,0.00,,2013-08-07 00:11:00,
2013-08-06 19:21:00,79.0,70.0,29.82,SW,217,0.0,1.0,74,0.00,,,0.00,,2013-08-07 00:21:00,
2013-08-06 19:32:00,79.0,70.0,29.82,SSW,212,0.0,0.0,75,0.00,,,0.00,,2013-08-07 00:32:00,
2013-08-06 19:43:00,78.0,70.0,29.81,WSW,248,0.0,0.0,76,0.00,,,0.00,,2013-08-07 00:43:00,
2013-08-06 19:52:00,78.0,70.0,29.82,WSW,257,0.0,0.0,77,0.00,,,0.00,,2013-08-07 00:52:00,
2013-08-06 20:01:00,78.0,71.0,29.81,WSW,256,0.0,0.0,78,0.00,,,0.00,,2013-08-07 01:01:00,
2013-08-06 20:11:00,78.0,71.0,29.82,SW,236,0.0,0.0,79,0.00,,,0.00,,2013-08-07 01:11:00,
2013-08-06 20:22:00,77.0,70.0,29.81,SW,225,0.0,0.0,80,0.00,,,0.00,,2013-08-07 01:22:00,
2013-08-06 20:32:00,77.0,71.0,29.81,SSE,150,0.0,0.0,81,0.00,,,0.00,,2013-08-07 01:32:00,
2013-08-06 20:43:00,76.0,70.0,29.81,ESE,123,0.0,0.0,82,0.00,,,0.00,,2013-08-07 01:43:00,
2013-08-06 20:52:00,76.0,70.0,29.80,SSE,155,0.0,0.0,83,0.00,,,0.00,,2013-08-07 01:52:00,
2013-08-06 21:02:00,75.0,70.0,29.80,SE,136,0.0,0.0,84,0.00,,,0.00,,2013-08-07 02:02:00,
2013-08-06 21:11:00,75.0,70.0,29.81,SSE,161,0.0,0.0,85,0.00,,,0.00,,2013-08-07 02:11:00,
2013-08-06 21:22:00,75.0,71.0,29.81,SE,129,0.0,1.0,86,0.00,,,0.00,,2013-08-07 02:22:00,
2013-08-06 21:33:00,74.0,70.0,29.81,SE,129,0.0,3.0,86,0.00,,,0.00,,2013-08-07 02:33:00,
2013-08-06 21:43:00,74.0,70.0,29.81,SSE,167,0.0,1.0,87,0.00,,,0.00,,2013-08-07 02:43:00,
2013-08-06 21:53:00,74.0,70.0,29.81,SSE,149,0.0,0.0,88,0.00,,,0.00,,2013-08-07 02:53:00,
2013-08-06 22:01:00,73.0,70.0,29.81,SE,132,0.0,2.0,89,0.00,,,0.00,,2013-08-07 03:01:00,
2013-08-06 22:11:00,73.0,70.0,29.81,SE,132,0.0,2.0,89,0.00,,,0.00,,2013-08-07 03:11:00,
2013-08-06 22:23:00,73.0,70.0,29.81,SSE,152,0.0,4.0,90,0.00,,,0.00,,2013-08-07 03:23:00,
2013-08-06 22:32:00,72.0,69.0,29.81,ESE,123,0.0,0.0,91,0.00,,,0.00,,2013-08-07 03:32:00,
2013-08-06 22:43:00,72.0,70.0,29.80,SW,222,0.0,0.0,92,0.00,,,0.00,,2013-08-07 03:43:00,
2013-08-06 22:52:00,72.0,70.0,29.81,SW,228,0.0,0.0,92,0.00,,,0.00,,2013-08-07 03:52:00,
2013-08-06 23:01:00,72.0,70.0,29.81,SW,231,0.0,0.0,92,0.00,,,0.00,,2013-08-07 04:01:00,
2013-08-06 23:11:00,72.0,70.0,29.81,SW,214,0.0,0.0,92,0.00,,,0.00,,2013-08-07 04:11:00,
2013-08-06 23:21:00,72.0,70.0,29.81,SW,233,0.0,0.0,93,0.00,,,0.00,,2013-08-07 04:21:00,
2013-08-06 23:33:00,72.0,70.0,29.81,WSW,243,0.0,2.0,93,0.00,,,0.00,,2013-08-07 04:33:00,
2013-08-06 23:43:00,72.0,70.0,29.80,West,259,0.0,0.0,93,0.00,,,0.00,,2013-08-07 04:43:00,
2013-08-06 23:52:00,72.0,70.0,29.80,WSW,242,0.0,0.0,93,0.00,,,0.00,,2013-08-07 04:52:00,